Location: Whelan
(46.7841°N, 117.1166°W)
Time: 03:28:08
(UTC+00:00)

Envisat - Pass Details

Date: 18 April 2024
Orbit: 762 x 764 km, 98.3° (Epoch: 24 May)

Event Time Altitude Azimuth Distance (km) Brightness Sun altitude
Rises 11:52:18 0° 8° (N) 3,241 6.8 -10.6°
Reaches altitude 10° 11:54:41 10° 3° (N) 2,310 5.9 -10.2°
Maximum altitude 11:59:32 47° 291° (WNW) 1,007 3.4 -9.5°
Drops below altitude 10° 12:04:21 10° 218° (SW) 2,293 4.9 -8.8°
Enters shadow 12:04:53 - 217° (SW) 2,495 5.1 -8.7°
